SKYSAT-C4 (41771 NORAD) Tracking and Keplerian Element Data

This shows tracking and keplerian element data for the satellite.

Feedback or suggestion? Click here.




ElementValue
Catalog41771
NameSKYSAT-C4
Epoch Orbit10187
Epoch Day198.76894936
Epoch Year2018
RAAN269.3588
Inclination97.3515
Eccentricity0.0001468
Argument of Perigee105.4116
Mean Anonmoly42.9568
Mean Motion15.23016288
Decay Rate5.22E-06
L11 41771U 16058B 18198.76894936 .00000522 00000-0 25102-4 0 9992
L22 41771 97.3515 269.3588 0001468 105.4116 42.9568 15.23016288101877

Live tracking and technical data element details for SKYSAT-C4 (NORAD 41771). SKYSAT-C4 can be tracked NOW for your location showing map with azimuth and elevation plus other details from your city location.

Track the satellite on the map from your city or location and see movement details for azimuth, elevation, latitude, longitude, range, height, and movement on the map or in text.







IsCatalogInMostPopularTable: catalog: 41771, numindb: 76
Update: records affected: 1



GetName: 41771 SKYSAT-C4

Hit Count: updated at: Thu, 19 Jul 2018 04:02:57 GMT